Regional Weather Roundup
Issued by NWS

Home | Current Version | Previous Version | Text Only | Print | Product List | Glossary On
Versions: 1 2 3 4 5 6 7 8 9 10 11 12 13 14 15 16 17 18 19 20 21 22 23 24 25 26 27 28
000
ASUS42 KKEY 232110
RWRKEY

FLORIDA REGIONAL WEATHER ROUNDUP FOR THE FLORIDA KEYS
NATIONAL WEATHER SERVICE KEY WEST FLORIDA
500 PM EDT SUN JUL 23 2017

...SOUTH FLORIDA AND THE KEYS...

CITY           SKY/WX    TMP DP  RH WIND       PRES   REMARKS
FORT MYERS     PTSUNNY   87  76  69 NW3       30.01S HX  97
SW REGIONAL AP PTSUNNY   88  73  61 SW6       30.01F HX  95
NAPLES         CLOUDY    87  75  67 SW6       30.02S HX  96
MIAMI          CLOUDY    89  77  67 SE9       30.02F HX 101
WEST KENDALL   CLOUDY    84  75  74 NE5       30.02F HX  92
HOMESTEAD      MOSUNNY   86  79  78 E5        30.01F HX  99
MARATHON       MOSUNNY   89  77  67 VRB6      30.01F HX 101
BOCA CHICA NAS PTSUNNY   88  75  65 E8        30.01F HX  97
KEY WEST INTL  SUNNY     89  72  56 SE8       30.01F HX  96

...INTERNATIONAL WEATHER...

CITY           SKY/WX    TMP DP  RH WIND       PRES   REMARKS
NASSAU BAHAMAS MOSUNNY   93  73  52 E8        30.05F HX 102
CANCUN MEXICO  PTSUNNY   84  82  94 NE5       29.98S HX 101
COZUMEL MEXICO PTSUNNY   88  77  70 E13       29.94F HX 100

ADJACENT COASTAL WATERS...

STATION/POSITION TIME  SKY/WX   TEMP    WIND        PRES    WAVE
                                AIR SEA DIR/SP/G            HT/PER
                 (UTC)          (F)     (DEG/KT/KT) (MB)    (FT/S)
PULASKI SHOAL LI 2100            87      90/  3/  3 1016.4F
SAND KEY         2050            85     120/  7/  9 1016.9F
LONG KEY         NOT AVBL
MOLASSES REEF    2000            84 88  140/ 10/ 11 1017.2F
FOWEY ROCKS      2100            85 87  140/  8/  9 1017.2F
Buoy 42097       2030               90                N/A     1/ 3

$$




USA.gov is the U.S. government's official web portal to all federal, state and local government web resources and services.